Location: Robert Brownlee Observatory
(34.2308°N, 117.2089°W)
Time: 14:09:40
(UTC-07:00)

Cosmos 1943 - Visible Passes

Search period start: 22 October 2017 00:00
Search period end: 01 November 2017 00:00
Orbit: 832 x 851 km, 71.0° (Epoch: 21 October)

Date Brightness Start Highest point End Pass type
(mag) Time Alt. Az. Time Alt. Az. Time Alt. Az.
29 Oct 5.4 19:55:14 10° N 19:55:43 12° NNE 19:55:43 12° NNE visible
30 Oct 5.1 19:40:20 10° NNE 19:41:26 14° NNE 19:41:26 14° NNE visible
30 Oct 6.0 21:23:16 10° NNW 21:23:17 10° NNW 21:23:17 10° NNW visible
31 Oct 4.9 19:25:26 10° NNE 19:27:15 16° NNE 19:27:15 16° NNE visible
31 Oct 5.6 21:08:14 10° NNW 21:09:06 15° NNW 21:09:06 15° NNW visible
